User: anonymous   Login
Location: Bonn
(50.7330°N, 7.1000°E)
Time: 11:38:00
(UTC+02:00)
Language:

Iridium 84 - Orbit

View from above orbital plane
View from above orbital plane
View from above satellite
View from above satellite

Ground track
Ground track

The orbit data is extracted from the following two-line orbital elements,

1 25530U 98066D   14294.43230037  .00000799  00000-0  27817-3 0  8370
2 25530 086.3994 035.3759 0002235 110.8721 249.2714 14.34213344838007
Epoch (UTC): 21 October 2014 10:22:30
Eccentricity: 0.0002235
inclination: 86.3994°
perigee height: 776 km
apogee height: 779 km
right ascension of ascending node: 35.3759°
argument of perigee: 110.8721°
revolutions per day: 14.34213344
mean anomaly at epoch: 249.2714°
orbit number at epoch: 83800

The dashed part of the orbit path shows where the satellite is in the earth's shadow,  

DLR